Tracking 31027 objects as of 19-Jul-2025
HD Live streaming from Space Station
objects crossing your sky now

STARLINK-5986

Track STARLINK-5986 now!
10-day predictions
STARLINK-5986 is classified as:


NORAD ID: 56452
Int'l Code: 2023-064E
Perigee: 577.2 km
Apogee: 581.1 km
Inclination: 70.0 °
Period: 96.1 minutes
Semi major axis: 6950 km
RCS: Unknown
Launch date: May 10, 2023
Source: United States (US)
Launch site: AIR FORCE WESTERN TEST RANGE (AFWTR)
Your satellite tracking list
STARLINK-1243
Track 1 satellite(s)




NASA's NSSDC Master Catalog

Two Line Element Set (TLE):
1 56452U 23064E   25199.57040288  .00001570  00000-0  13929-3 0  9997
2 56452  69.9999  14.8998 0002798 269.7212  90.3627 14.98338151120170
Source of the keplerian elements: AFSPC